Voltar ao catálogo

THORAD DELTA 1 DEB

AtivoSSO
NORAD 8396·DEBRIS·🇺🇸 United States

Lançado Nov 15, 1974 de Vandenberg Space Force Base

Loading…

Próximas Passagens (próximas 24 horas)

TLE

AtualizadoSource: Space-Track

Época: Sep 13, 2026, 03:22 UTC

1 08396U 74089BY  26256.14088006 -.00000065  00000-0 -13297-3 0  9990
2 08396 102.1153 332.0216 0063351 278.8006 110.4736 12.42766856353681

Acompanhe THORAD DELTA 1 DEB em tempo real com AllMySat

Download on the App Store